State College, PA

2:56 AM EDT on May 26, 2017 (GMT -0400)
University Park

Weather History for KUNV - October, 2012

Change the Weather History Date:

Tuesday, October 30, 2012

  Actual Average Record
Temperature  
Mean Temperature 44 °F -  
Max Temperature 52 °F 56 °F 74 °F (1945)
Min Temperature 35 °F 33 °F 20 °F (1965)
Degree Days  
Heating Degree Days 22    
Moisture  
Dew Point 39 °F    
Average Humidity 88    
Maximum Humidity 93    
Minimum Humidity 81    
Precipitation  
Precipitation 0.46 in - - ()
Sea Level Pressure  
Sea Level Pressure 29.08 in    
Wind  
Wind Speed 15 mph (East)    
Max Wind Speed 25 mph    
Max Gust Speed 43 mph    
Visibility 7 miles    
Events Rain    
Averages and records for this station are not official NWS values.
T = Trace of Precipitation, MM = Missing Value Source: NWS Daily Summary

Daily Weather History Graph

Daily Weather History Graph

Search for Another Location

Airport or City:

Trip Planner

Search our weather history database for the weather conditions in past years. The results will help you decide how hot, cold, wet, or windy it might be!

Date:

Astronomy

Oct. 30, 2012 Rise Set
Actual Time 7:40 AM EDT 6:09 PM EDT
Civil Twilight 7:11 AM EDT 6:37 PM EDT
Nautical Twilight 6:39 AM EDT 7:09 PM EDT
Astronomical Twilight 6:07 AM EDT 7:41 PM EDT
Moon 6:37 PM EDT (10/30) 8:25 AM EDT (10/30)
Length of Visible Light 11h 25m
Length of Day
10h 29m
Full, 99% of the Moon is Illuminated
Oct 30
Full
Nov 6
Last Quarter
Nov 13
New
Nov 20
First Quarter
Nov 28
Full

Hourly Weather History & Observations

Time (EDT) Temp. Windchill Dew Point Humidity Pressure Visibility Wind Dir Wind Speed Gust Speed Precip Events Conditions
12:15 AM 48.4 °F - 45.0 °F 88% 28.73 in 4.0 mi North 23.0 mph 31.1 mph 0.09 in Rain Rain
12:35 AM 50.2 °F - 46.9 °F 89% 28.72 in 4.0 mi North 15.0 mph 42.6 mph 0.13 in Rain Rain
12:55 AM 50.4 °F - 47.8 °F 91% 28.73 in 3.0 mi North 16.1 mph 25.3 mph 0.01 in Rain Heavy Rain
1:15 AM 50.2 °F - 48.2 °F 93% 28.73 in 3.0 mi North 17.3 mph 20.7 mph 0.27 in Rain Light Rain
1:35 AM 52.0 °F - 48.7 °F 89% 28.74 in 7.0 mi NE 21.9 mph 35.7 mph 0.30 in Rain Light Rain
1:55 AM 51.8 °F - 48.9 °F 90% 28.74 in 7.0 mi NNE 25.3 mph 33.4 mph N/A Rain Light Rain
2:15 AM 51.3 °F - 48.0 °F 89% 28.74 in 7.0 mi NNE 20.7 mph 29.9 mph 0.02 in Rain Rain
2:35 AM 50.0 °F - 46.8 °F 89% 28.76 in 5.0 mi NE 21.9 mph 34.5 mph 0.04 in Rain Light Rain
2:55 AM 49.1 °F - 45.5 °F 87% 28.78 in 7.0 mi NE 19.6 mph 33.4 mph N/A Rain Rain
3:15 AM 48.6 °F - 44.4 °F 86% 28.78 in 5.0 mi NE 23.0 mph 35.7 mph 0.03 in Rain Light Rain
3:35 AM 47.7 °F - 43.9 °F 87% 28.80 in 5.0 mi NE 19.6 mph 35.7 mph 0.05 in Rain Light Rain
3:55 AM 47.1 °F - 42.8 °F 85% 28.81 in 7.0 mi ENE 21.9 mph 38.0 mph N/A Rain Rain
4:35 AM 46.4 °F 40.4 °F 42.4 °F 86% 28.84 in 10.0 mi ENE 13.8 mph 28.8 mph 0.04 in   Light Drizzle
4:55 AM 45.7 °F 38.6 °F 42.1 °F 87% 28.85 in 10.0 mi ENE 17.3 mph 27.6 mph N/A Rain Rain
5:15 AM 45.0 °F 38.5 °F 41.0 °F 86% 28.87 in 10.0 mi NE 13.8 mph 29.9 mph N/A Rain Light Rain
5:35 AM 44.8 °F 37.7 °F 41.4 °F 88% 28.88 in 10.0 mi ENE 16.1 mph 25.3 mph 0.01 in   Drizzle
5:53 AM 44.6 °F 38.1 °F 41.0 °F 87% 28.89 in 6.0 mi ENE 13.8 mph 24.2 mph N/A Rain Light Rain
6:53 AM 42.8 °F 36.6 °F 39.2 °F 87% 28.94 in 6.0 mi ENE 11.5 mph 26.5 mph N/A Rain Light Rain
7:53 AM 41.0 °F 33.9 °F 37.4 °F 87% 29.00 in 8.0 mi ENE 12.7 mph 21.9 mph N/A   Drizzle
8:53 AM 41.0 °F 33.9 °F 37.4 °F 87% 29.04 in 7.0 mi ENE 12.7 mph 20.7 mph N/A   Drizzle
9:53 AM 41.0 °F 33.9 °F 35.6 °F 81% 29.08 in 6.0 mi ENE 12.7 mph 19.6 mph N/A Rain Light Rain
10:53 AM 39.2 °F 32.0 °F 35.6 °F 87% 29.12 in 6.0 mi East 11.5 mph - N/A Rain Light Rain
11:53 AM 39.2 °F 34.2 °F 35.6 °F 87% 29.15 in 6.0 mi East 6.9 mph 16.1 mph N/A   Drizzle
12:53 PM 39.2 °F 33.0 °F 35.6 °F 87% 29.17 in 6.0 mi ESE 9.2 mph 19.6 mph N/A   Light Drizzle
1:53 PM 39.2 °F 32.0 °F 35.6 °F 87% 29.20 in 7.0 mi ESE 11.5 mph - N/A   Drizzle
2:53 PM 37.4 °F 30.8 °F 33.8 °F 87% 29.92 in 8.0 mi South 9.2 mph - N/A   Light Drizzle
3:53 PM 39.2 °F 35.9 °F 35.6 °F 87% 29.26 in 7.0 mi South 4.6 mph - N/A   Drizzle
4:53 PM 39.2 °F 37.0 °F 33.8 °F 81% 29.29 in 7.0 mi SSE 3.5 mph - N/A   Light Drizzle
5:53 PM 37.4 °F - 33.8 °F 87% 29.31 in 7.0 mi Calm Calm - N/A   Light Drizzle
6:53 PM 37.4 °F - 33.8 °F 87% 29.33 in 7.0 mi Calm Calm - N/A   Light Drizzle
7:53 PM 37.4 °F 33.8 °F 33.8 °F 87% 29.36 in 10.0 mi South 4.6 mph - N/A   Overcast
8:53 PM 37.4 °F - 33.8 °F 87% 29.38 in 10.0 mi Calm Calm - N/A   Overcast
9:15 PM 36.7 °F 34.1 °F 33.8 °F 89% 29.38 in 10.0 mi South 3.5 mph - N/A   Drizzle
9:35 PM 36.3 °F 31.6 °F 33.3 °F 89% 29.39 in 7.0 mi South 5.8 mph - N/A   Drizzle
9:55 PM 36.0 °F - 33.4 °F 91% 29.39 in 10.0 mi Calm Calm - N/A   Light Drizzle
10:15 PM 36.3 °F - 33.8 °F 91% 29.39 in 10.0 mi Calm Calm - 0.01 in   Overcast
10:35 PM 36.5 °F - 34.0 °F 91% 29.39 in 10.0 mi Calm Calm - 0.01 in Rain Light Rain
10:55 PM 36.3 °F 33.7 °F 34.2 °F 92% 29.39 in 10.0 mi South 3.5 mph - N/A Rain Light Rain
11:15 PM 36.0 °F 33.3 °F 33.8 °F 92% 29.39 in 10.0 mi South 3.5 mph - N/A   Overcast
11:35 PM 35.8 °F 33.0 °F 33.4 °F 91% 29.38 in 10.0 mi South 3.5 mph - N/A   Overcast
11:55 PM 35.8 °F 31.9 °F 33.3 °F 91% 29.39 in 7.0 mi South 4.6 mph - N/A   Drizzle